Location: Elkerhausen
(50.4175°N, 8.2842°E)
Time: 00:08:11
(UTC+00:00)

Daily predictions for brighter satellites

Satellite Brightness Start Highest point End
(mag) Time Altitude Azimuth Time Altitude Azimuth Time Altitude Azimuth
STARLINK-1247 3.1 00:00:22 10° WNW 00:03:29 70° NNE 00:06:37 10° E
STARLINK-1227 3.1 00:00:50 10° WNW 00:03:56 70° NNE 00:07:02 10° E
ATLAS CENTAUR R/B 2.6 00:02:17 10° NW 00:04:19 36° NNE 00:07:48 10° E
STARLINK-1226 3.1 00:01:41 10° WNW 00:04:49 71° NNE 00:07:55 10° E
STARLINK-1215 3.0 00:02:38 10° WNW 00:05:45 71° NNE 00:08:53 10° E
STARLINK-1225 4.0 00:01:48 10° W 00:05:56 65° N 00:10:04 10° ENE
STARLINK-1217 3.0 00:04:24 10° WNW 00:07:31 72° NNE 00:10:39 10° ESE
STARLINK-1229 3.0 00:05:19 10° WNW 00:08:27 73° NNE 00:11:35 10° ESE
STARLINK-1271 4.1 00:04:45 10° WNW 00:08:53 63° N 00:13:00 10° E
STARLINK-1270 3.0 00:06:11 10° WNW 00:09:18 74° NNE 00:12:26 10° ESE
Cosmos 1726 3.3 00:07:01 10° NNW 00:10:13 28° W 00:10:54 26° WSW
STARLINK-1230 4.0 00:06:48 10° W 00:10:55 64° N 00:15:03 10° ENE
GEOS 3 Rocket 3.6 00:07:39 23° SSE 00:11:00 69° SW 00:16:18 10° NW
STARLINK-1189 3.0 00:08:02 10° WNW 00:11:09 75° NNE 00:14:16 10° ESE
Cosmos 2058 Rocket 3.3 00:07:07 10° N 00:11:32 67° ENE 00:13:46 28° SSE
STARLINK-1188 3.0 00:08:54 10° WNW 00:12:02 76° NNE 00:15:10 10° ESE
STARLINK-1235 2.8 00:09:37 10° WNW 00:12:43 86° NNE 00:15:49 10° ESE
Meteor 1-29 3.0 00:09:22 10° NNE 00:12:46 67° ESE 00:13:32 48° SSE
STARLINK-1187 2.8 00:10:01 10° WNW 00:13:08 81° NNE 00:16:14 10° ESE
STARLINK-1154 4.0 00:09:44 10° WNW 00:13:53 64° N 00:18:00 10° E
Cosmos 2228 3.0 00:09:49 10° NNW 00:14:03 64° W 00:15:32 37° SSW
STARLINK-1191 2.9 00:11:23 10° WNW 00:14:30 77° NNE 00:17:36 10° ESE
COSMOS 2455 3.1 00:11:39 29° S 00:14:40 58° ESE 00:20:35 10° NE
SJ 16-02 3.8 00:11:38 10° N 00:15:03 21° NE 00:18:27 10° ESE
STARLINK-1221 2.9 00:12:15 10° WNW 00:15:22 78° NNE 00:18:29 10° ESE
STARLINK-1243 4.1 00:11:47 10° W 00:15:55 62° N 00:20:02 10° ENE
STARLINK-1222 2.9 00:13:09 10° WNW 00:16:16 79° NNE 00:19:22 10° ESE
STARLINK-1214 2.9 00:14:04 10° WNW 00:17:11 80° NNE 00:20:16 10° ESE
Cosmos 1953 3.8 00:15:16 10° NW 00:18:27 23° W 00:19:26 21° WSW
STARLINK-1197 4.0 00:14:43 10° WNW 00:18:52 65° N 00:23:00 10° E
SL-14 R/B 3.8 00:18:39 31° SSE 00:20:06 48° E 00:23:51 10° NNE
Cosmos 1340 Rocket 4.0 00:16:41 10° NNW 00:20:10 29° W 00:21:08 26° WSW
STARLINK-1236 4.1 00:16:47 10° W 00:20:54 61° N 00:25:01 10° ENE
IRAS Rocket 4.2 00:17:53 24° SSE 00:21:23 87° WSW 00:27:00 10° NNW
Cosmos 1300 3.0 00:19:31 10° N 00:23:18 63° ENE 00:25:04 29° SSE
STARLINK-1198 4.0 00:19:41 10° WNW 00:23:49 66° N 00:27:58 10° E
Okean 1-7 Rocket 3.7 00:22:03 32° S 00:24:04 68° E 00:28:33 10° NNE
Cosmos 1174 3.6 00:23:33 44° SSE 00:24:06 50° ESE 00:27:40 10° NE
Cosmos 921 Rocket 4.1 00:23:34 23° SSE 00:25:24 34° ESE 00:29:18 10° NE
BREEZE M DEB (TANK) 2.9 00:26:49 33° ESE 00:26:49 33° ESE 00:28:47 10° ESE
COSMOS 2487 3.0 00:23:43 10° NW 00:26:57 37° WSW 00:27:18 36° WSW
STARLINK-1199 3.9 00:24:42 10° WNW 00:28:51 68° NNE 00:33:00 10° E
STARLINK-1269 4.2 00:26:46 10° W 00:30:53 60° N 00:34:59 10° ENE
Cosmos 2219 4.0 00:26:24 10° NNW 00:31:59 51° NE 00:37:28 10° SE
STARLINK-1210 3.9 00:29:40 10° WNW 00:33:49 70° NNE 00:37:58 10° E
Cosmos 1626 2.1 00:34:31 37° S 00:35:52 76° E 00:39:35 10° NNE
STARLINK-1200 4.2 00:31:47 10° W 00:35:54 60° N 00:40:00 10° ENE
STARLINK-60 3.5 00:36:27 38° SSE 00:36:27 38° SSE 00:39:29 10° ENE
Cosmos 1606 Rocket 4.3 00:33:21 10° NNW 00:37:20 36° W 00:38:48 28° SW
Cosmos 1656 Rocket 4.1 00:33:51 21° SW 00:37:33 58° NW 00:43:05 10° NNE
STARLINK-1219 3.8 00:34:39 10° WNW 00:38:49 72° NNE 00:42:58 10° E
Nadezhda 1 Rocket 4.1 00:34:37 10° N 00:40:46 73° ENE 00:45:52 16° SSE
STARLINK-1192 4.2 00:36:47 10° W 00:40:54 59° N 00:45:00 10° ENE
FALCON 9 R/B 3.9 00:38:25 23° SSW 00:41:41 31° SSE 00:57:20 10° ESE
STARLINK-1211 3.8 00:39:37 10° WNW 00:43:47 74° NNE 00:47:56 10° E
STARLINK-1244 4.2 00:41:45 10° W 00:45:52 59° N 00:49:58 10° E
MOZ.5/SAFIR/RUBIN 5/SL-8 3.7 00:44:15 21° SSE 00:47:22 84° ENE 00:52:03 10° NNW
Cosmos 2297 Rocket 2.9 00:42:04 10° NNW 00:47:39 54° NE 00:53:11 10° SE
UNK 4.1 00:44:00 16° SSE 00:47:40 65° ENE 00:52:15 10° N
STARLINK-1245 3.7 00:44:37 10° WNW 00:48:47 77° NNE 00:52:57 10° ESE
Cosmos 1812 Rocket 4.3 00:46:19 10° N 00:50:43 52° ENE 00:54:29 13° SSE
STARLINK-1138 4.2 00:46:45 10° W 00:50:52 59° N 00:54:58 10° E
SL-4 R/B 2.6 00:49:12 28° SSW 00:51:29 51° SSE 00:56:05 10° ENE
STARLINK-1203 4.2 00:49:21 10° W 00:53:31 59° N 00:57:41 10° E
Cosmos 1437 2.7 00:52:48 40° SSE 00:53:41 67° E 00:56:42 10° NNE
STARLINK-1233 3.7 00:49:35 10° WNW 00:53:46 79° NNE 00:57:55 10° ESE
Cosmos 1674 4.2 00:53:21 20° WSW 00:54:54 26° WNW 00:58:07 10° NNW
STARLINK-1143 4.2 00:51:45 10° W 00:55:52 59° N 00:59:58 10° E
SL-19 R/B 4.2 00:51:08 10° NNE 00:56:31 77° WNW 01:00:04 23° SSW
STARLINK-1204 3.7 00:54:35 10° WNW 00:58:45 82° NNE 01:02:55 10° ESE
Cosmos 1777 Rocket 4.4 00:54:06 10° NW 00:59:05 46° WSW 01:01:54 24° SSW
ATLAS CENTAUR R/B 1.4 00:56:56 27° SW 00:59:16 88° NW 01:03:24 10° NE
Timation 2 Rocket 4.0 00:53:14 10° NW 00:59:32 60° WSW 01:04:30 15° S
STARLINK-1241 4.2 00:56:45 10° WNW 01:00:51 59° N 01:04:57 10° E
SL-16 R/B 2.5 00:56:01 14° SSE 01:01:29 88° WSW 01:07:43 10° NNW
NOSS 3-4 (A) 3.7 00:57:31 17° WSW 01:02:17 69° NW 01:08:47 10° NE
BREEZE-M R/B 3.8 01:01:07 25° S 01:02:17 29° SSE 01:05:06 10° E
NOSS 3-4 (C) 3.7 00:57:37 17° WSW 01:02:23 69° NW 01:08:54 10° NE
FALCON 9 DEB 4.5 01:02:08 23° SSE 01:02:41 24° SE 01:05:32 10° E
STARLINK-1238 3.6 00:59:32 10° WNW 01:03:43 85° NNE 01:07:52 10° ESE
Cosmos 1602 Rocket 3.9 01:01:58 21° S 01:04:42 59° E 01:08:58 10° NNE
STARLINK-29 3.7 01:04:34 32° S 01:05:08 35° SSE 01:08:05 10° E
Cosmos 1455 3.4 01:02:08 10° N 01:05:42 39° ENE 01:09:14 10° SE
STARLINK-1239 4.2 01:01:44 10° WNW 01:05:51 59° N 01:09:57 10° E
ATLAS 3B R/B 3.0 01:00:23 10° NW 01:06:48 45° WSW 01:12:43 13° S
STARLINK-1201 3.6 01:04:32 10° WNW 01:08:43 88° NE 01:12:52 10° ESE
CENTAUR R/B 4.1 01:03:35 10° WNW 01:10:17 29° WSW 01:14:47 19° SSW
STARLINK-1240 4.2 01:06:44 10° WNW 01:10:51 60° N 01:14:57 10° E
GP-B 4.1 01:07:44 10° NNE 01:11:59 42° E 01:16:10 10° SSE
Meteor 2-1 Rocket 4.2 01:07:29 10° NNW 01:13:03 89° ENE 01:18:04 13° S
BREEZE-M DEB (TANK) 1.2 01:12:39 37° SW 01:13:20 52° SSE 01:15:36 10° E
STARLINK-1206 3.5 01:09:32 10° WNW 01:13:42 88° SSW 01:17:51 10° ESE
Cosmos-2242 4.2 01:11:14 10° N 01:15:17 41° ENE 01:19:19 10° SE
STARLINK-1216 4.2 01:11:43 10° WNW 01:15:51 61° N 01:19:57 10° E
Cosmos 1745 Rocket 4.0 01:12:45 20° SSW 01:17:13 81° W 01:23:24 10° N
STARLINK-1205 3.5 01:14:31 10° WNW 01:18:40 85° SSW 01:22:49 10° ESE
STARLINK-1237 4.2 01:16:43 10° WNW 01:20:51 61° N 01:24:57 10° E
RESURS DK-1 2.4 01:19:17 24° SW 01:21:44 79° WNW 01:25:54 10° NNE
Cosmos 2227 Rocket 2.3 01:17:36 10° NNW 01:23:20 81° ENE 01:29:01 10° SSE
Cosmos 1356 Rocket 3.7 01:19:20 10° NNW 01:23:20 50° W 01:25:49 22° SSW
STARLINK-1218 3.5 01:19:29 10° WNW 01:23:38 81° SSW 01:27:47 10° ESE
Meteor 1-24 Rocket 4.2 01:22:03 19° SW 01:25:33 44° WNW 01:30:45 10° N
STARLINK-1202 4.1 01:21:43 10° WNW 01:25:51 62° N 01:29:58 10° E
CZ-2D R/B 2.1 01:20:58 10° NNE 01:26:17 88° ESE 01:30:15 18° SSW
Cosmos 2369 Rocket 4.2 01:23:07 10° W 01:27:19 21° NW 01:31:30 10° N
Cosmos 1697 Rocket 4.2 01:23:41 10° SSE 01:28:23 28° ESE 01:33:08 10° NE
STARLINK-1254 3.5 01:24:28 10° WNW 01:28:37 77° SSW 01:32:46 10° ESE
ADEOS II 3.1 01:23:54 10° NNE 01:28:53 41° E 01:33:50 10° SSE
Cosmos 1703 4.5 01:26:48 11° SSE 01:30:20 38° E 01:34:02 10° NNE
ATLAS 2AS CENTAUR R/B 3.6 01:23:33 10° WSW 01:31:26 57° NW 01:39:09 10° NE
CZ-4C R/B 4.2 01:30:46 21° SSW 01:33:06 38° W 01:37:11 10° NNW
STARLINK-1231 3.5 01:29:28 10° WNW 01:33:37 73° SSW 01:37:45 10° ESE
STARLINK-1228 4.0 01:32:16 10° W 01:35:08 27° SW 01:38:00 10° SSE
STARLINK-1246 4.1 01:31:41 10° WNW 01:35:49 65° N 01:39:56 10° E
Resurs 1-4 Rocket 2.1 01:30:44 10° NNE 01:36:02 77° WNW 01:40:11 17° SSW
STARLINK-1234 3.9 01:33:42 10° W 01:36:21 25° SW 01:37:02 23° SSW
STARLINK-1212 3.6 01:34:57 10° W 01:37:46 31° SW 01:40:34 10° SSE
STARLINK-1105 3.6 01:35:27 10° W 01:38:14 31° SW 01:41:01 10° SSE
STARLINK-1232 3.5 01:34:27 10° WNW 01:38:35 69° SSW 01:42:42 10° ESE
STARLINK-1209 4.0 01:36:00 10° W 01:38:37 24° SW 01:38:42 24° SW
STARLINK-1247 3.6 01:36:21 10° W 01:39:10 31° SW 01:41:57 10° SSE
STARLINK-1227 3.6 01:36:50 10° W 01:39:36 30° SW 01:42:22 10° SSE
STARLINK-1226 3.6 01:37:40 10° W 01:40:28 30° SW 01:43:15 10° SSE
USA 81 4.0 01:36:19 16° S 01:40:39 80° W 01:45:58 10° N
STARLINK-1224 4.0 01:36:40 10° WNW 01:40:48 66° N 01:44:56 10° E
ARIANE 5 R/B 3.9 01:36:23 10° NNE 01:40:57 33° E 01:45:27 10° SSE
STARLINK-1215 3.6 01:38:38 10° W 01:41:24 30° SW 01:44:11 10° SSE
STARLINK-52 3.1 01:39:41 22° SW 01:41:29 56° SSE 01:44:39 10° ENE
Cosmos 1758 Rocket 3.7 01:39:23 14° S 01:43:04 71° E 01:47:27 10° NNE
STARLINK-1217 3.7 01:40:24 10° W 01:43:10 29° SW 01:45:55 10° SSE
NPP 3.7 01:38:03 10° NNE 01:43:28 78° WNW 01:47:57 15° SSW
STARLINK-1208 3.5 01:39:25 10° WNW 01:43:32 66° SSW 01:47:38 10° SE
STARLINK-1229 3.7 01:41:20 10° W 01:44:05 28° SW 01:46:50 10° SSE
STARLINK-1270 3.7 01:42:12 10° W 01:44:56 28° SW 01:47:41 10° SSE
H-2A R/B 3.8 01:41:48 10° SE 01:45:43 35° ENE 01:49:45 10° N
STARLINK-1225 4.0 01:41:40 10° WNW 01:45:49 68° NNE 01:49:57 10° E
STARLINK-1189 3.8 01:44:03 10° W 01:46:46 27° SW 01:49:29 10° SSE
STARLINK-1188 3.8 01:44:57 10° W 01:47:39 27° SW 01:50:21 10° SSE
STARLINK-1235 4.1 01:45:46 10° W 01:48:15 22° SW 01:50:43 10° SSE
Cosmos 1898 Rocket 3.5 01:43:08 10° NNW 01:48:30 80° WSW 01:53:49 10° SSE
STARLINK-1271 3.6 01:44:25 10° WNW 01:48:32 62° SSW 01:52:37 10° SE
STARLINK-1187 3.9 01:46:07 10° W 01:48:42 24° SW 01:51:16 10° SSE
STARLINK-1191 3.8 01:47:27 10° W 01:50:06 26° SW 01:52:44 10° SSE
Lacrosse 4 Rocket 2.5 01:46:05 10° NNW 01:50:22 50° NE 01:54:31 10° SE
STARLINK-1230 4.0 01:46:39 10° WNW 01:50:47 69° NNE 01:54:56 10° E
STARLINK-1221 3.9 01:48:19 10° W 01:50:57 25° SW 01:53:35 10° SSE
Starlink 7 placeholder 2.4 01:49:43 18° W 01:50:57 51° NNW 01:52:54 10° ENE
Meteor 1-21 Rocket 4.2 01:46:48 14° SSW 01:51:39 81° WNW 01:57:23 10° N
STARLINK-1222 3.9 01:49:14 10° W 01:51:51 25° SW 01:54:28 10° SSE
STARLINK-1214 3.9 01:50:09 10° W 01:52:45 24° SW 01:55:21 10° SSE
Cosmos 1656 3.9 01:48:20 14° SSW 01:53:14 70° ESE 01:58:51 10° NNE
STARLINK-1154 3.6 01:49:25 10° WNW 01:53:30 58° SSW 01:57:34 10° SE
Cosmos 2285 Rocket 4.2 01:47:31 10° NNW 01:53:58 82° ENE 02:00:19 10° SSE
SJ 16-02 1.4 01:49:39 10° NNW 01:54:01 59° WSW 01:58:22 10° S
CZ-4C R/B 3.3 01:50:43 10° S 01:55:12 34° ESE 02:00:27 10° NE
STARLINK-1243 3.9 01:51:38 10° WNW 01:55:47 71° NNE 01:59:55 10° E
Cosmos 2084 3.5 01:52:18 16° SW 01:55:51 89° NW 02:00:22 10° NE
Cosmos 468 Rocket 4.1 01:52:22 13° SSW 01:56:55 72° ESE 02:02:03 10° NNE
STARLINK-1197 3.7 01:54:24 10° WNW 01:58:27 55° SSW 02:02:30 10° SE
Cosmos 1937 Rocket 3.5 01:53:31 10° NNW 01:58:46 87° WSW 02:04:03 10° SSE
Cosmos 1953 Rocket 4.1 01:55:01 10° S 01:59:24 60° E 02:03:48 10° NNE
STARLINK-1236 3.9 01:56:37 10° WNW 02:00:46 73° NNE 02:04:55 10° E
Meteor 2-10 Rocket 3.8 01:55:36 10° NNW 02:00:49 53° W 02:05:48 10° S
COSMOS 2455 3.9 01:55:19 10° WSW 02:00:55 38° NW 02:06:32 10° NNE
STARLINK-1198 3.7 01:59:21 10° WNW 02:03:23 52° SSW 02:07:25 10° SE
Cosmos 921 Rocket 4.3 02:00:21 12° WSW 02:03:43 30° WNW 02:07:33 10° N
Cosmos 1709 Rocket 4.1 02:01:48 12° SSW 02:07:24 63° WNW 02:13:30 10° N
STARLINK-1199 3.8 02:04:23 10° WNW 02:08:23 48° SSW 02:12:23 10° SE
STARLINK-1269 3.8 02:06:34 10° WNW 02:10:44 78° NNE 02:14:53 10° ESE
STARLINK-60 3.3 02:09:20 10° W 02:12:31 64° NNW 02:15:44 10° ENE
STARLINK-1210 3.9 02:09:22 10° WNW 02:13:20 45° SSW 02:17:17 10° SE
STARLINK-1200 3.7 02:11:34 10° WNW 02:15:44 81° NNE 02:19:53 10° ESE
Cosmos 2219 4.0 02:10:56 10° NW 02:15:55 32° WSW 02:20:50 10° SSW
STARLINK-1320 3.5 02:14:52 14° SW 02:17:19 41° SSE 02:20:17 10° ENE
STARLINK-1322 3.5 02:15:11 14° SW 02:17:39 42° SSE 02:20:38 10° ENE
STARLINK-1324 3.5 02:15:32 13° SW 02:18:01 42° SSE 02:21:00 10° ENE
STARLINK-1294 3.5 02:15:47 13° SW 02:18:17 42° SSE 02:21:18 10° ENE
STARLINK-1219 4.0 02:14:21 10° WNW 02:18:17 42° SW 02:22:12 10° SE
STARLINK-1261 3.5 02:16:09 13° SW 02:18:40 42° SSE 02:21:39 10° ENE
STARLINK-1325 3.5 02:16:30 13° SW 02:19:01 43° SSE 02:22:01 10° ENE
STARLINK-1333 3.5 02:16:48 13° SW 02:19:20 43° SSE 02:22:19 10° ENE
STARLINK-1334 3.5 02:17:07 13° SW 02:19:40 43° SSE 02:22:39 10° ENE
STARLINK-1326 3.5 02:17:28 13° SW 02:20:01 43° SSE 02:23:01 10° ENE
STARLINK-1323 3.5 02:17:47 13° SW 02:20:21 43° SSE 02:23:20 10° ENE
Cosmos 1980 Rocket 3.4 02:15:26 10° S 02:20:32 38° ESE 02:25:42 10° NE
STARLINK-1338 3.8 02:17:39 12° SW 02:20:36 43° SSE 02:23:55 10° ENE
STARLINK-1349 3.5 02:18:06 13° SW 02:20:41 44° SSE 02:23:40 10° ENE
STARLINK-1192 3.7 02:16:33 10° WNW 02:20:43 84° NNE 02:24:52 10° ESE
STARLINK-1336 3.4 02:18:28 13° SW 02:21:03 44° SSE 02:24:03 10° ENE
STARLINK-1331 3.4 02:18:45 13° SW 02:21:21 44° SSE 02:24:21 10° ENE
CRYOSAT 2 4.4 02:16:41 10° N 02:21:35 72° W 02:26:27 10° SSW
STARLINK-1344 3.4 02:19:05 13° SW 02:21:42 44° SSE 02:24:41 10° ENE
STARLINK-1343 3.4 02:19:25 13° SW 02:22:02 45° SSE 02:25:02 10° ENE
STARLINK-1346 3.4 02:19:43 12° SW 02:22:23 45° SSE 02:25:26 10° ENE
STARLINK-1328 3.4 02:20:05 12° SW 02:22:44 45° SSE 02:25:45 10° ENE
STARLINK-1354 3.4 02:20:22 12° SW 02:23:02 45° SSE 02:26:03 10° ENE
CZ-4B R/B 4.3 02:21:05 10° ESE 02:23:04 16° ENE 02:25:04 10° NNE
STARLINK-1211 4.0 02:19:21 10° WNW 02:23:14 40° SW 02:27:06 10° SE
Cosmos 1328 3.9 02:19:20 10° SSW 02:23:16 61° WNW 02:27:15 10° N
STARLINK-1347 3.4 02:20:44 12° SW 02:23:23 46° SSE 02:26:25 10° ENE
STARLINK-1357 3.4 02:21:01 12° SW 02:23:43 46° SSE 02:26:43 10° ENE
STARLINK-1335 3.4 02:21:22 12° SW 02:24:03 46° SSE 02:27:04 10° ENE
STARLINK-1327 3.4 02:21:41 12° SW 02:24:23 46° SSE 02:27:24 10° ENE
STARLINK-1371 3.7 02:21:31 12° SW 02:24:37 46° SSE 02:27:59 10° ENE
STARLINK-1340 3.4 02:22:01 12° SW 02:24:45 47° SSE 02:27:46 10° ENE
STARLINK-1356 3.4 02:22:21 12° SW 02:25:04 47° SSE 02:28:06 10° ENE
ERS-2 2.1 02:21:39 10° S 02:25:18 77° WSW 02:29:00 10° NNW
STARLINK-1345 3.3 02:22:41 12° SW 02:25:26 47° SSE 02:28:26 10° ENE
ERBS 3.6 02:22:21 10° NW 02:25:34 43° NNE 02:28:47 10° E
STARLINK-1244 3.7 02:21:31 10° WNW 02:25:41 87° NNE 02:29:50 10° ESE
STARLINK-1355 3.3 02:22:59 12° SW 02:25:44 47° SSE 02:28:46 10° ENE
STARLINK-1321 3.3 02:23:18 12° SW 02:26:04 48° SSE 02:29:06 10° ENE
STARLINK-1358 3.3 02:23:39 12° SW 02:26:26 48° SSE 02:29:28 10° ENE
STARLINK-1341 3.7 02:23:29 11° SW 02:26:39 48° SSE 02:30:03 10° ENE
STARLINK-1332 3.3 02:23:57 12° SW 02:26:44 48° SSE 02:29:46 10° ENE
STARLINK-1348 3.3 02:24:18 12° SW 02:27:06 48° SSE 02:30:08 10° ENE
IRS-1C 4.2 02:21:51 10° NNE 02:27:13 83° WNW 02:32:34 10° SSW
STARLINK-1330 3.3 02:24:36 11° SW 02:27:25 49° SSE 02:30:28 10° ENE
STARLINK-1363 3.3 02:24:56 11° SW 02:27:46 49° SSE 02:30:48 10° ENE
STARLINK-1337 3.3 02:25:15 11° SW 02:28:06 49° SSE 02:31:09 10° ENE
STARLINK-1245 4.1 02:24:22 10° WNW 02:28:12 37° SW 02:32:01 10° SSE
STARLINK-1342 3.3 02:25:35 11° SW 02:28:26 49° SSE 02:31:29 10° ENE
STARLINK-1374 3.6 02:25:26 11° SW 02:28:42 49° SSE 02:32:06 10° ENE
STARLINK-1364 3.3 02:25:55 11° SW 02:28:46 50° SSE 02:31:49 10° ENE
STARLINK-1376 3.3 02:26:15 11° SW 02:29:08 50° SSE 02:32:10 10° ENE
STARLINK-1360 3.3 02:26:30 11° SW 02:29:24 50° SSE 02:32:27 10° ENE
STARLINK-1361 3.3 02:26:56 11° SW 02:29:50 51° SSE 02:32:53 10° ENE
CZ-4B R/B 4.4 02:25:21 10° N 02:30:03 38° WNW 02:34:50 10° SW
STARLINK-1367 3.3 02:27:10 11° SW 02:30:07 51° SSE 02:33:12 10° ENE
STARLINK-1366 3.2 02:27:33 11° SW 02:30:29 51° SSE 02:33:31 10° ENE
STARLINK-1138 3.6 02:26:30 10° WNW 02:30:40 89° S 02:34:49 10° ESE
STARLINK-1339 3.6 02:27:27 11° SW 02:30:47 50° SSE 02:34:11 10° ENE
SL-4 R/B 2.5 02:26:21 10° W 02:31:11 81° N 02:35:48 10° E
Cosmos 2297 Rocket 3.0 02:26:34 10° NW 02:31:26 30° WSW 02:36:16 10° SSW
STARLINK-1377 3.5 02:29:28 10° SW 02:32:52 52° SSE 02:36:18 10° ENE
STARLINK-1233 4.2 02:29:22 10° WNW 02:33:08 35° SW 02:36:54 10° SSE
STARLINK-1203 3.6 02:29:19 10° WNW 02:33:33 87° SSW 02:37:45 10° ESE
STARLINK-1353 3.5 02:31:20 10° SW 02:34:43 53° SSE 02:38:08 10° ENE
Cosmos 2082 3.9 02:29:53 10° NW 02:35:22 52° WSW 02:40:48 10° S
STARLINK-1143 3.6 02:31:29 10° WNW 02:35:38 86° SSW 02:39:48 10° ESE
STARLINK-1375 3.5 02:33:10 10° SW 02:36:35 55° SSE 02:40:00 10° ENE
STARLINK-1204 4.3 02:34:23 10° WNW 02:38:06 32° SW 02:41:48 10° SSE
Cosmos 540 Rocket 3.7 02:33:31 10° SSW 02:38:37 71° ESE 02:43:45 10° NNE
ATLAS CENTAUR R/B 3.4 02:35:25 10° W 02:38:41 21° NNW 02:41:48 10° NNE
STARLINK-1350 3.4 02:35:33 10° SW 02:38:58 57° SSE 02:42:24 10° ENE
FALCON 9 DEB 3.2 02:35:57 10° WSW 02:39:25 87° NNW 02:42:54 10° ENE
STARLINK-1241 3.6 02:36:28 10° WNW 02:40:37 82° SSW 02:44:46 10° ESE
Cosmos 1455 3.8 02:38:26 10° NW 02:41:02 18° W 02:43:38 10° SW
STARLINK-29 3.2 02:37:59 10° W 02:41:10 67° NNW 02:44:20 10° ENE
STARLINK-1352 3.4 02:37:55 10° SW 02:41:23 59° SSE 02:44:52 10° ENE
CZ-2D R/B 3.6 02:37:31 10° NNE 02:41:38 76° ESE 02:45:49 10° S
Landsat 5 3.8 02:37:42 10° SSE 02:42:13 87° ENE 02:46:46 10° NNW
Cosmos 1825 Rocket 4.3 02:38:47 10° SW 02:42:47 37° WNW 02:46:49 10° N
STARLINK-1238 4.4 02:39:21 10° W 02:43:01 30° SW 02:46:40 10° SSE
Cosmos 2278 4.1 02:37:30 10° SSW 02:43:04 65° ESE 02:48:42 10° NE
USA 234 4.4 02:37:20 10° ENE 02:43:12 34° SE 02:49:04 10° SSW
STARLINK-1368 3.4 02:40:05 10° SW 02:43:34 61° SSE 02:47:03 10° ENE
Meteor 1-28 Rocket 3.4 02:41:31 10° S 02:45:12 50° W 02:48:54 10° NNW
Meteor 1-11 4.3 02:39:38 10° SSW 02:45:16 76° WNW 02:50:54 10° N
STARLINK-1369 3.3 02:42:01 10° SW 02:45:28 63° SSE 02:48:56 10° ENE
STARLINK-1239 3.6 02:41:26 10° WNW 02:45:35 78° SSW 02:49:44 10° ESE
SL-16 R/B 4.0 02:42:01 10° SW 02:45:59 18° W 02:49:59 10° NW
Cosmos 2263 Rocket 3.0 02:41:53 10° NNW 02:47:28 58° NE 02:52:58 10° SE
Cosmos 2074 Rocket 4.1 02:42:24 10° SSW 02:48:41 74° W 02:55:02 10° N
